Time,TemperatureF,DewpointF,PressureIn,WindDirection,WindDirectionDegrees,WindSpeedMPH,WindSpeedGustMPH,Humidity,HourlyPrecipIn,Conditions,Clouds,dailyrainin,SoftwareType,DateUTC
2014-01-24 00:02:00,-1.8,-6.5,30.59,WSW,245,9.0,12.0,80,0.00,,,0.00,Wunderground v.1.15,2014-01-24 05:02:00,
2014-01-24 00:06:00,-1.8,-6.5,30.58,WSW,251,9.0,12.0,80,0.00,,,0.00,Wunderground v.1.15,2014-01-24 05:06:00,
2014-01-24 00:10:00,-2.0,-6.7,30.58,WSW,250,9.0,12.0,80,0.00,,,0.00,Wunderground v.1.15,2014-01-24 05:10:00,
2014-01-24 00:14:00,-2.2,-6.9,30.58,WSW,248,8.0,12.0,80,0.00,,,0.00,Wunderground v.1.15,2014-01-24 05:14:00,
2014-01-24 00:16:00,-2.3,-6.7,30.58,WSW,249,8.0,12.0,81,0.00,,,0.00,Wunderground v.1.15,2014-01-24 05:16:00,
2014-01-24 00:22:00,-2.6,-7.0,30.58,WSW,243,8.0,12.0,81,0.00,,,0.00,Wunderground v.1.15,2014-01-24 05:22:00,
2014-01-24 00:28:00,-2.7,-7.1,30.58,WSW,248,8.0,12.0,81,0.00,,,0.00,Wunderground v.1.15,2014-01-24 05:28:00,
2014-01-24 00:34:00,-2.9,-7.3,30.59,WSW,248,8.0,12.0,81,0.00,,,0.00,Wunderground v.1.15,2014-01-24 05:34:00,
2014-01-24 00:40:00,-3.0,-7.4,30.59,WSW,243,8.0,8.0,81,0.00,,,0.00,Wunderground v.1.15,2014-01-24 05:40:00,
2014-01-24 00:46:00,-3.2,-7.3,30.59,WSW,251,7.0,12.0,82,0.00,,,0.00,Wunderground v.1.15,2014-01-24 05:46:00,
2014-01-24 00:52:00,-3.2,-7.6,30.59,WSW,249,8.0,12.0,81,0.00,,,0.00,Wunderground v.1.15,2014-01-24 05:52:00,
2014-01-24 00:58:00,-3.4,-7.8,30.59,WSW,246,8.0,12.0,81,0.00,,,0.00,Wunderground v.1.15,2014-01-24 05:58:00,
2014-01-24 01:04:00,-3.5,-7.9,30.58,WSW,239,8.0,12.0,81,0.00,,,0.00,Wunderground v.1.15,2014-01-24 06:04:00,
2014-01-24 01:10:00,-3.5,-7.6,30.59,WSW,242,8.0,12.0,82,0.00,,,0.00,Wunderground v.1.15,2014-01-24 06:10:00,
2014-01-24 01:16:00,-3.6,-7.7,30.58,WSW,248,8.0,12.0,82,0.00,,,0.00,Wunderground v.1.15,2014-01-24 06:16:00,
2014-01-24 01:22:00,-3.7,-7.8,30.58,WSW,240,8.0,12.0,82,0.00,,,0.00,Wunderground v.1.15,2014-01-24 06:22:00,
2014-01-24 01:28:00,-3.7,-8.1,30.58,WSW,245,8.0,12.0,81,0.00,,,0.00,Wunderground v.1.15,2014-01-24 06:28:00,
2014-01-24 01:34:00,-3.9,-8.3,30.58,West,263,8.0,12.0,81,0.00,,,0.00,Wunderground v.1.15,2014-01-24 06:34:00,
2014-01-24 01:40:00,-4.0,-8.1,30.58,WSW,250,8.0,8.0,82,0.00,,,0.00,Wunderground v.1.15,2014-01-24 06:40:00,
2014-01-24 01:46:00,-4.0,-8.1,30.57,SW,236,7.0,12.0,82,0.00,,,0.00,Wunderground v.1.15,2014-01-24 06:46:00,
2014-01-24 01:52:00,-4.0,-8.1,30.57,WSW,245,6.0,12.0,82,0.00,,,0.00,Wunderground v.1.15,2014-01-24 06:52:00,
2014-01-24 01:58:00,-4.1,-8.5,30.57,WSW,255,7.0,12.0,81,0.00,,,0.00,Wunderground v.1.15,2014-01-24 06:58:00,
2014-01-24 02:04:00,-4.2,-8.6,30.58,WSW,246,7.0,12.0,81,0.00,,,0.00,Wunderground v.1.15,2014-01-24 07:04:00,
2014-01-24 02:10:00,-4.3,-8.7,30.58,WSW,248,7.0,12.0,81,0.00,,,0.00,Wunderground v.1.15,2014-01-24 07:10:00,
2014-01-24 02:16:00,-4.3,-8.7,30.58,WSW,243,9.0,12.0,81,0.00,,,0.00,Wunderground v.1.15,2014-01-24 07:16:00,
2014-01-24 02:22:00,-4.4,-8.8,30.58,WSW,238,8.0,12.0,81,0.00,,,0.00,Wunderground v.1.15,2014-01-24 07:22:00,
2014-01-24 02:28:00,-4.5,-8.8,30.58,WSW,248,7.0,12.0,81,0.00,,,0.00,Wunderground v.1.15,2014-01-24 07:28:00,
2014-01-24 02:34:00,-4.6,-8.9,30.58,SW,232,8.0,12.0,81,0.00,,,0.00,Wunderground v.1.15,2014-01-24 07:34:00,
2014-01-24 02:40:00,-4.6,-8.9,30.58,SW,233,7.0,12.0,81,0.00,,,0.00,Wunderground v.1.15,2014-01-24 07:40:00,
2014-01-24 02:46:00,-4.7,-9.3,30.58,SW,230,7.0,12.0,80,0.00,,,0.00,Wunderground v.1.15,2014-01-24 07:46:00,
2014-01-24 02:52:00,-4.9,-9.5,30.58,SSW,212,7.0,12.0,80,0.00,,,0.00,Wunderground v.1.15,2014-01-24 07:52:00,
2014-01-24 02:58:00,-5.0,-9.6,30.58,WSW,240,7.0,12.0,80,0.00,,,0.00,Wunderground v.1.15,2014-01-24 07:58:00,
2014-01-24 03:04:00,-5.0,-9.6,30.58,SW,236,7.0,12.0,80,0.00,,,0.00,Wunderground v.1.15,2014-01-24 08:04:00,
2014-01-24 03:10:00,-5.0,-9.6,30.58,SW,231,8.0,8.0,80,0.00,,,0.00,Wunderground v.1.15,2014-01-24 08:10:00,
2014-01-24 03:16:00,-5.1,-9.7,30.58,WSW,240,8.0,12.0,80,0.00,,,0.00,Wunderground v.1.15,2014-01-24 08:16:00,
2014-01-24 03:22:00,-5.3,-9.9,30.58,WSW,239,9.0,12.0,80,0.00,,,0.00,Wunderground v.1.15,2014-01-24 08:22:00,
2014-01-24 03:28:00,-5.3,-9.9,30.57,SW,218,8.0,12.0,80,0.00,,,0.00,Wunderground v.1.15,2014-01-24 08:28:00,
2014-01-24 03:34:00,-5.4,-10.0,30.57,WSW,245,8.0,12.0,80,0.00,,,0.00,Wunderground v.1.15,2014-01-24 08:34:00,
2014-01-24 03:40:00,-5.6,-10.2,30.57,SW,226,9.0,9.0,80,0.00,,,0.00,Wunderground v.1.15,2014-01-24 08:40:00,
2014-01-24 03:46:00,-5.7,-10.0,30.57,SW,226,9.0,12.0,81,0.00,,,0.00,Wunderground v.1.15,2014-01-24 08:46:00,
2014-01-24 03:52:00,-5.7,-10.3,30.57,SW,218,9.0,12.0,80,0.00,,,0.00,Wunderground v.1.15,2014-01-24 08:52:00,
2014-01-24 03:58:00,-5.9,-10.2,30.57,WSW,238,9.0,12.0,81,0.00,,,0.00,Wunderground v.1.15,2014-01-24 08:58:00,
2014-01-24 04:04:00,-6.1,-10.7,30.57,SW,233,8.0,12.0,80,0.00,,,0.00,Wunderground v.1.15,2014-01-24 09:04:00,
2014-01-24 04:10:00,-6.1,-10.4,30.57,SW,236,8.0,12.0,81,0.00,,,0.00,Wunderground v.1.15,2014-01-24 09:10:00,
2014-01-24 04:16:00,-6.1,-10.4,30.56,SW,233,9.0,12.0,81,0.00,,,0.00,Wunderground v.1.15,2014-01-24 09:16:00,
2014-01-24 04:22:00,-6.2,-10.5,30.56,SW,229,9.0,12.0,81,0.00,,,0.00,Wunderground v.1.15,2014-01-24 09:22:00,
2014-01-24 04:28:00,-6.3,-10.9,30.56,SW,236,9.0,12.0,80,0.00,,,0.00,Wunderground v.1.15,2014-01-24 09:28:00,
2014-01-24 04:34:00,-6.1,-10.7,30.56,SW,226,9.0,12.0,80,0.00,,,0.00,Wunderground v.1.15,2014-01-24 09:34:00,
2014-01-24 04:40:00,-6.2,-10.8,30.55,SW,232,9.0,9.0,80,0.00,,,0.00,Wunderground v.1.15,2014-01-24 09:40:00,
2014-01-24 04:46:00,-6.2,-10.8,30.55,SW,236,9.0,12.0,80,0.00,,,0.00,Wunderground v.1.15,2014-01-24 09:46:00,
2014-01-24 04:52:00,-6.1,-10.7,30.56,WSW,237,10.0,12.0,80,0.00,,,0.00,Wunderground v.1.15,2014-01-24 09:52:00,
2014-01-24 04:58:00,-6.1,-10.7,30.56,WSW,242,10.0,12.0,80,0.00,,,0.00,Wunderground v.1.15,2014-01-24 09:58:00,
2014-01-24 05:04:00,-6.4,-11.0,30.56,SW,236,9.0,12.0,80,0.00,,,0.00,Wunderground v.1.15,2014-01-24 10:04:00,
2014-01-24 05:10:00,-6.5,-11.1,30.56,SW,233,8.0,12.0,80,0.00,,,0.00,Wunderground v.1.15,2014-01-24 10:10:00,
2014-01-24 05:16:00,-6.6,-11.2,30.56,SW,226,8.0,12.0,80,0.00,,,0.00,Wunderground v.1.15,2014-01-24 10:16:00,
2014-01-24 05:22:00,-6.7,-11.3,30.56,SW,217,8.0,12.0,80,0.00,,,0.00,Wunderground v.1.15,2014-01-24 10:22:00,
2014-01-24 05:28:00,-6.8,-11.4,30.55,SW,226,8.0,12.0,80,0.00,,,0.00,Wunderground v.1.15,2014-01-24 10:28:00,
2014-01-24 05:34:00,-6.9,-11.2,30.55,SW,214,7.0,12.0,81,0.00,,,0.00,Wunderground v.1.15,2014-01-24 10:34:00,
2014-01-24 05:40:00,-6.9,-11.2,30.54,SSW,208,7.0,12.0,81,0.00,,,0.00,Wunderground v.1.15,2014-01-24 10:40:00,
2014-01-24 05:46:00,-6.8,-11.1,30.53,SSW,210,7.0,12.0,81,0.00,,,0.00,Wunderground v.1.15,2014-01-24 10:46:00,
2014-01-24 05:52:00,-6.9,-11.2,30.53,SW,217,8.0,12.0,81,0.00,,,0.00,Wunderground v.1.15,2014-01-24 10:52:00,
2014-01-24 05:58:00,-7.0,-11.3,30.53,SW,217,8.0,12.0,81,0.00,,,0.00,Wunderground v.1.15,2014-01-24 10:58:00,
2014-01-24 06:04:00,-7.2,-11.5,30.53,SW,215,7.0,12.0,81,0.00,,,0.00,Wunderground v.1.15,2014-01-24 11:04:00,
2014-01-24 06:10:00,-7.4,-11.7,30.53,SW,217,7.0,12.0,81,0.00,,,0.00,Wunderground v.1.15,2014-01-24 11:10:00,
2014-01-24 06:16:00,-7.4,-11.4,30.53,SW,217,8.0,12.0,82,0.00,,,0.00,Wunderground v.1.15,2014-01-24 11:16:00,
2014-01-24 06:22:00,-7.4,-11.4,30.52,SSW,207,8.0,12.0,82,0.00,,,0.00,Wunderground v.1.15,2014-01-24 11:22:00,
2014-01-24 06:28:00,-7.4,-11.4,30.52,SW,216,9.0,12.0,82,0.00,,,0.00,Wunderground v.1.15,2014-01-24 11:28:00,
2014-01-24 06:34:00,-7.4,-11.7,30.52,SSW,204,8.0,12.0,81,0.00,,,0.00,Wunderground v.1.15,2014-01-24 11:34:00,
2014-01-24 06:40:00,-7.4,-11.4,30.52,SW,217,8.0,8.0,82,0.00,,,0.00,Wunderground v.1.15,2014-01-24 11:40:00,
2014-01-24 06:46:00,-7.3,-11.6,30.51,SW,226,9.0,12.0,81,0.00,,,0.00,Wunderground v.1.15,2014-01-24 11:46:00,
2014-01-24 06:52:00,-7.4,-11.7,30.51,SW,221,9.0,12.0,81,0.00,,,0.00,Wunderground v.1.15,2014-01-24 11:52:00,
2014-01-24 06:58:00,-7.3,-11.6,30.51,SW,226,8.0,12.0,81,0.00,,,0.00,Wunderground v.1.15,2014-01-24 11:58:00,
2014-01-24 07:04:00,-7.1,-11.4,30.51,SW,219,9.0,12.0,81,0.00,,,0.00,Wunderground v.1.15,2014-01-24 12:04:00,
2014-01-24 07:10:00,-7.0,-11.3,30.51,SSW,209,10.0,10.0,81,0.00,,,0.00,Wunderground v.1.15,2014-01-24 12:10:00,
2014-01-24 07:16:00,-6.8,-11.1,30.51,SW,218,9.0,12.0,81,0.00,,,0.00,Wunderground v.1.15,2014-01-24 12:16:00,
2014-01-24 07:22:00,-6.6,-10.9,30.50,SSW,213,10.0,12.0,81,0.00,,,0.00,Wunderground v.1.15,2014-01-24 12:22:00,
2014-01-24 07:28:00,-6.6,-11.2,30.50,SW,216,9.0,12.0,80,0.00,,,0.00,Wunderground v.1.15,2014-01-24 12:28:00,
2014-01-24 07:34:00,-6.5,-11.1,30.50,SW,225,8.0,12.0,80,0.00,,,0.00,Wunderground v.1.15,2014-01-24 12:34:00,
2014-01-24 07:40:00,-6.3,-10.6,30.49,SSW,211,9.0,9.0,81,0.00,,,0.00,Wunderground v.1.15,2014-01-24 12:40:00,
2014-01-24 07:46:00,-6.2,-10.5,30.49,SW,214,9.0,12.0,81,0.00,,,0.00,Wunderground v.1.15,2014-01-24 12:46:00,
2014-01-24 07:52:00,-6.2,-10.8,30.48,SSW,207,8.0,12.0,80,0.00,,,0.00,Wunderground v.1.15,2014-01-24 12:52:00,
2014-01-24 07:58:00,-6.3,-10.9,30.48,SW,218,7.0,12.0,80,0.00,,,0.00,Wunderground v.1.15,2014-01-24 12:58:00,
2014-01-24 08:04:00,-5.9,-10.2,30.48,SSW,212,9.0,12.0,81,0.00,,,0.00,Wunderground v.1.15,2014-01-24 13:04:00,
2014-01-24 08:10:00,-5.5,-10.1,30.47,SSW,210,9.0,12.0,80,0.00,,,0.00,Wunderground v.1.15,2014-01-24 13:10:00,
2014-01-24 08:16:00,-5.2,-9.8,30.47,SSW,202,9.0,12.0,80,0.00,,,0.00,Wunderground v.1.15,2014-01-24 13:16:00,
2014-01-24 08:22:00,-5.0,-9.6,30.47,SW,214,9.0,12.0,80,0.00,,,0.00,Wunderground v.1.15,2014-01-24 13:22:00,
2014-01-24 08:28:00,-4.8,-9.4,30.47,SW,218,9.0,12.0,80,0.00,,,0.00,Wunderground v.1.15,2014-01-24 13:28:00,
2014-01-24 08:34:00,-4.5,-9.4,30.47,SSW,200,10.0,13.0,79,0.00,,,0.00,Wunderground v.1.15,2014-01-24 13:34:00,
2014-01-24 08:40:00,-4.2,-9.1,30.46,SW,217,10.0,12.0,79,0.00,,,0.00,Wunderground v.1.15,2014-01-24 13:40:00,
2014-01-24 08:46:00,-3.8,-8.7,30.45,SSW,205,10.0,12.0,79,0.00,,,0.00,Wunderground v.1.15,2014-01-24 13:46:00,
2014-01-24 08:52:00,-3.5,-8.6,30.45,SW,214,11.0,12.0,78,0.00,,,0.00,Wunderground v.1.15,2014-01-24 13:52:00,
2014-01-24 08:58:00,-3.3,-8.4,30.45,SW,214,10.0,12.0,78,0.00,,,0.00,Wunderground v.1.15,2014-01-24 13:58:00,
2014-01-24 09:04:00,-2.9,-8.1,30.45,SSW,211,11.0,15.0,78,0.00,,,0.00,Wunderground v.1.15,2014-01-24 14:04:00,
2014-01-24 09:10:00,-2.5,-7.9,30.44,SW,214,12.0,12.0,77,0.00,,,0.00,Wunderground v.1.15,2014-01-24 14:10:00,
2014-01-24 09:16:00,-1.8,-7.3,30.44,SSW,210,12.0,14.0,77,0.00,,,0.00,Wunderground v.1.15,2014-01-24 14:16:00,
2014-01-24 09:22:00,-1.3,-7.0,30.43,SSW,206,13.0,13.0,76,0.00,,,0.00,Wunderground v.1.15,2014-01-24 14:22:00,
2014-01-24 09:28:00,-1.0,-6.7,30.42,SSW,204,13.0,15.0,76,0.00,,,0.00,Wunderground v.1.15,2014-01-24 14:28:00,
2014-01-24 09:34:00,-0.8,-6.5,30.42,SW,229,13.0,15.0,76,0.00,,,0.00,Wunderground v.1.15,2014-01-24 14:34:00,
2014-01-24 09:40:00,-0.5,-6.5,30.42,SW,216,14.0,14.0,75,0.00,,,0.00,Wunderground v.1.15,2014-01-24 14:40:00,
2014-01-24 09:46:00,-0.2,-6.2,30.41,SW,218,14.0,16.0,75,0.00,,,0.00,Wunderground v.1.15,2014-01-24 14:46:00,
2014-01-24 09:52:00,0.1,-5.9,30.41,SSW,212,14.0,17.0,75,0.00,,,0.00,Wunderground v.1.15,2014-01-24 14:52:00,
2014-01-24 09:58:00,0.4,-5.7,30.40,SW,229,16.0,17.0,75,0.00,,,0.00,Wunderground v.1.15,2014-01-24 14:58:00,
2014-01-24 10:04:00,0.8,-5.3,30.40,SW,232,16.0,16.0,75,0.00,,,0.00,Wunderground v.1.15,2014-01-24 15:04:00,
2014-01-24 10:10:00,1.1,-5.0,30.39,SW,226,16.0,16.0,75,0.00,,,0.00,Wunderground v.1.15,2014-01-24 15:10:00,
2014-01-24 10:16:00,1.5,-4.9,30.40,SSW,211,17.0,17.0,74,0.00,,,0.00,Wunderground v.1.15,2014-01-24 15:16:00,
2014-01-24 10:22:00,1.8,-4.6,30.39,SW,229,16.0,18.0,74,0.00,,,0.00,Wunderground v.1.15,2014-01-24 15:22:00,
2014-01-24 10:28:00,1.9,-4.8,30.39,SW,215,17.0,26.0,73,0.00,,,0.00,Wunderground v.1.15,2014-01-24 15:28:00,
2014-01-24 10:34:00,2.0,-4.4,30.38,SSW,211,18.0,20.0,74,0.00,,,0.00,Wunderground v.1.15,2014-01-24 15:34:00,
2014-01-24 10:40:00,2.3,-4.1,30.38,SW,233,18.0,20.0,74,0.00,,,0.00,Wunderground v.1.15,2014-01-24 15:40:00,
2014-01-24 10:46:00,2.5,-3.9,30.37,SSW,206,18.0,20.0,74,0.00,,,0.00,Wunderground v.1.15,2014-01-24 15:46:00,
2014-01-24 10:52:00,2.7,-4.0,30.37,SW,236,19.0,23.0,73,0.00,,,0.00,Wunderground v.1.15,2014-01-24 15:52:00,
2014-01-24 10:58:00,2.8,-3.9,30.38,SW,224,18.0,23.0,73,0.00,,,0.00,Wunderground v.1.15,2014-01-24 15:58:00,
2014-01-24 11:04:00,3.0,-3.4,30.37,SW,218,17.0,20.0,74,0.00,,,0.00,Wunderground v.1.15,2014-01-24 16:04:00,
2014-01-24 11:10:00,3.4,-3.0,30.37,SW,229,18.0,18.0,74,0.00,,,0.00,Wunderground v.1.15,2014-01-24 16:10:00,
2014-01-24 11:16:00,3.5,-2.9,30.36,SW,217,18.0,22.0,74,0.00,,,0.00,Wunderground v.1.15,2014-01-24 16:16:00,
2014-01-24 11:22:00,3.8,-2.6,30.35,SW,219,18.0,18.0,74,0.00,,,0.00,Wunderground v.1.15,2014-01-24 16:22:00,
2014-01-24 11:28:00,4.1,-2.4,30.35,SSW,203,19.0,22.0,74,0.00,,,0.00,Wunderground v.1.15,2014-01-24 16:28:00,
2014-01-24 11:34:00,4.3,-2.4,30.34,SW,229,20.0,20.0,73,0.00,,,0.00,Wunderground v.1.15,2014-01-24 16:34:00,
2014-01-24 11:40:00,4.8,-1.7,30.34,SW,217,20.0,21.0,74,0.00,,,0.00,Wunderground v.1.15,2014-01-24 16:40:00,
2014-01-24 11:46:00,5.0,-1.8,30.33,SSW,203,19.0,22.0,73,0.00,,,0.00,Wunderground v.1.15,2014-01-24 16:46:00,
2014-01-24 11:52:00,5.5,-1.3,30.33,SW,214,20.0,20.0,73,0.00,,,0.00,Wunderground v.1.15,2014-01-24 16:52:00,
2014-01-24 11:58:00,5.9,-1.2,30.32,SSW,212,19.0,21.0,72,0.00,,,0.00,Wunderground v.1.15,2014-01-24 16:58:00,
2014-01-24 12:04:00,6.1,-0.7,30.31,SW,217,19.0,21.0,73,0.00,,,0.00,Wunderground v.1.15,2014-01-24 17:04:00,
2014-01-24 12:10:00,6.3,-0.5,30.29,SSW,205,21.0,28.0,73,0.00,,,0.00,Wunderground v.1.15,2014-01-24 17:10:00,
2014-01-24 12:16:00,6.6,-0.2,30.28,SW,217,22.0,28.0,73,0.00,,,0.00,Wunderground v.1.15,2014-01-24 17:16:00,
2014-01-24 12:22:00,6.6,-0.5,30.28,SW,232,22.0,22.0,72,0.00,,,0.00,Wunderground v.1.15,2014-01-24 17:22:00,
2014-01-24 12:28:00,6.8,-0.3,30.26,SW,225,22.0,27.0,72,0.00,,,0.00,Wunderground v.1.15,2014-01-24 17:28:00,
2014-01-24 12:34:00,7.2,0.4,30.26,SW,214,21.0,21.0,73,0.00,,,0.00,Wunderground v.1.15,2014-01-24 17:34:00,
2014-01-24 12:40:00,7.7,0.5,30.25,SSW,207,20.0,20.0,72,0.00,,,0.00,Wunderground v.1.15,2014-01-24 17:40:00,
2014-01-24 12:46:00,8.1,1.2,30.24,SW,228,22.0,28.0,73,0.00,,,0.00,Wunderground v.1.15,2014-01-24 17:46:00,
2014-01-24 12:52:00,8.7,1.2,30.24,SSW,212,23.0,23.0,71,0.00,,,0.00,Wunderground v.1.15,2014-01-24 17:52:00,
2014-01-24 12:58:00,9.4,1.3,30.22,SSW,197,22.0,29.0,69,0.00,,,0.00,Wunderground v.1.15,2014-01-24 17:58:00,
2014-01-24 13:04:00,9.4,1.3,30.21,SW,215,24.0,31.0,69,0.00,,,0.00,Wunderground v.1.15,2014-01-24 18:04:00,
2014-01-24 13:10:00,9.9,1.8,30.20,SSW,213,24.0,24.0,69,0.00,,,0.00,Wunderground v.1.15,2014-01-24 18:10:00,
2014-01-24 13:16:00,10.2,1.7,30.20,SW,214,22.0,24.0,68,0.00,,,0.00,Wunderground v.1.15,2014-01-24 18:16:00,
2014-01-24 13:22:00,10.6,2.7,30.18,SSW,212,21.0,25.0,70,0.00,,,0.00,Wunderground v.1.15,2014-01-24 18:22:00,
2014-01-24 13:28:00,10.5,2.3,30.17,SW,215,23.0,27.0,69,0.00,,,0.00,Wunderground v.1.15,2014-01-24 18:28:00,
2014-01-24 13:34:00,10.7,2.8,30.16,SSW,207,25.0,27.0,70,0.00,,,0.00,Wunderground v.1.15,2014-01-24 18:34:00,
2014-01-24 13:40:00,10.6,2.7,30.16,SW,217,26.0,26.0,70,0.00,,,0.00,Wunderground v.1.15,2014-01-24 18:40:00,
2014-01-24 13:46:00,10.7,2.8,30.15,SW,221,27.0,27.0,70,0.00,,,0.00,Wunderground v.1.15,2014-01-24 18:46:00,
2014-01-24 13:52:00,10.9,2.4,30.14,SSW,194,25.0,25.0,68,0.00,,,0.00,Wunderground v.1.15,2014-01-24 18:52:00,
2014-01-24 13:58:00,11.1,2.9,30.14,SSW,198,23.0,25.0,69,0.00,,,0.00,Wunderground v.1.15,2014-01-24 18:58:00,
2014-01-24 14:04:00,11.5,3.6,30.13,SSW,212,23.0,30.0,70,0.00,,,0.00,Wunderground v.1.15,2014-01-24 19:04:00,
2014-01-24 14:10:00,11.8,3.3,30.12,SW,223,23.0,23.0,68,0.00,,,0.00,Wunderground v.1.15,2014-01-24 19:10:00,
2014-01-24 14:16:00,11.9,3.7,30.11,SW,217,22.0,24.0,69,0.00,,,0.00,Wunderground v.1.15,2014-01-24 19:16:00,
2014-01-24 14:22:00,12.1,3.6,30.11,SW,218,22.0,22.0,68,0.00,,,0.00,Wunderground v.1.15,2014-01-24 19:22:00,
2014-01-24 14:28:00,12.4,3.5,30.10,SW,229,21.0,22.0,67,0.00,,,0.00,Wunderground v.1.15,2014-01-24 19:28:00,
2014-01-24 14:34:00,12.6,4.7,30.08,SSW,197,21.0,21.0,70,0.00,,,0.00,Wunderground v.1.15,2014-01-24 19:34:00,
2014-01-24 14:40:00,12.8,4.5,30.08,SW,235,21.0,21.0,69,0.00,,,0.00,Wunderground v.1.15,2014-01-24 19:40:00,
2014-01-24 14:46:00,13.1,4.8,30.08,SSW,212,21.0,21.0,69,0.00,,,0.00,Wunderground v.1.15,2014-01-24 19:46:00,
2014-01-24 14:52:00,13.2,5.6,30.07,SSW,210,20.0,20.0,71,0.00,,,0.00,Wunderground v.1.15,2014-01-24 19:52:00,
2014-01-24 14:58:00,13.2,5.6,30.06,SW,214,20.0,20.0,71,0.00,,,0.00,Wunderground v.1.15,2014-01-24 19:58:00,
2014-01-24 15:04:00,13.3,5.6,30.05,SW,222,20.0,26.0,71,0.00,,,0.00,Wunderground v.1.15,2014-01-24 20:04:00,
2014-01-24 15:10:00,13.4,5.7,30.04,SSW,198,20.0,21.0,71,0.00,,,0.00,Wunderground v.1.15,2014-01-24 20:10:00,
2014-01-24 15:16:00,13.4,6.1,30.03,SSW,209,21.0,23.0,72,0.00,,,0.00,Wunderground v.1.15,2014-01-24 20:16:00,
2014-01-24 15:22:00,13.6,6.2,30.02,SSW,197,21.0,22.0,72,0.00,,,0.00,Wunderground v.1.15,2014-01-24 20:22:00,
2014-01-24 15:28:00,13.7,6.3,30.01,SSW,207,21.0,23.0,72,0.00,,,0.00,Wunderground v.1.15,2014-01-24 20:28:00,
2014-01-24 15:34:00,13.7,6.6,30.00,SSW,208,21.0,28.0,73,0.00,,,0.00,Wunderground v.1.15,2014-01-24 20:34:00,
2014-01-24 15:40:00,14.0,6.9,30.01,SW,215,23.0,23.0,73,0.00,,,0.00,Wunderground v.1.15,2014-01-24 20:40:00,
2014-01-24 15:46:00,14.3,6.9,29.99,SSW,193,22.0,27.0,72,0.00,,,0.00,Wunderground v.1.15,2014-01-24 20:46:00,
2014-01-24 15:52:00,14.5,7.1,29.99,SSW,212,23.0,23.0,72,0.00,,,0.00,Wunderground v.1.15,2014-01-24 20:52:00,
2014-01-24 15:58:00,14.6,7.5,29.98,SSW,195,23.0,24.0,73,0.00,,,0.00,Wunderground v.1.15,2014-01-24 20:58:00,
2014-01-24 16:04:00,14.8,7.7,29.97,SSW,199,24.0,27.0,73,0.00,,,0.00,Wunderground v.1.15,2014-01-24 21:04:00,
2014-01-24 16:10:00,15.0,7.3,29.97,SSW,204,23.0,23.0,71,0.00,,,0.00,Wunderground v.1.15,2014-01-24 21:10:00,
2014-01-24 16:16:00,15.2,7.2,29.96,SW,215,23.0,24.0,70,0.00,,,0.00,Wunderground v.1.15,2014-01-24 21:16:00,
2014-01-24 16:22:00,15.4,7.0,29.97,SSW,207,21.0,22.0,69,0.00,,,0.00,Wunderground v.1.15,2014-01-24 21:22:00,
2014-01-24 16:28:00,15.5,7.1,29.96,SSW,207,19.0,23.0,69,0.00,,,0.00,Wunderground v.1.15,2014-01-24 21:28:00,
2014-01-24 16:34:00,15.6,7.6,29.96,SSW,203,18.0,19.0,70,0.00,,,0.00,Wunderground v.1.15,2014-01-24 21:34:00,
2014-01-24 16:40:00,15.6,7.2,29.94,SW,217,18.0,26.0,69,0.00,,,0.00,Wunderground v.1.15,2014-01-24 21:40:00,
2014-01-24 16:46:00,15.6,7.2,29.93,SSW,204,18.0,26.0,69,0.00,,,0.00,Wunderground v.1.15,2014-01-24 21:46:00,
2014-01-24 16:52:00,15.6,7.6,29.93,SSW,197,18.0,19.0,70,0.00,,,0.00,Wunderground v.1.15,2014-01-24 21:52:00,
2014-01-24 16:58:00,15.6,7.9,29.93,SSW,203,18.0,26.0,71,0.00,,,0.00,Wunderground v.1.15,2014-01-24 21:58:00,
2014-01-24 17:04:00,15.7,8.0,29.93,SSW,210,20.0,24.0,71,0.00,,,0.00,Wunderground v.1.15,2014-01-24 22:04:00,
2014-01-24 17:10:00,15.8,7.7,29.93,SSW,204,20.0,21.0,70,0.00,,,0.00,Wunderground v.1.15,2014-01-24 22:10:00,
2014-01-24 17:16:00,15.8,7.4,29.94,SSW,207,19.0,22.0,69,0.00,,,0.00,Wunderground v.1.15,2014-01-24 22:16:00,
2014-01-24 17:22:00,15.8,7.7,29.93,SSW,200,19.0,23.0,70,0.00,,,0.00,Wunderground v.1.15,2014-01-24 22:22:00,
2014-01-24 17:28:00,15.8,8.1,29.93,SSW,207,19.0,23.0,71,0.00,,,0.00,Wunderground v.1.15,2014-01-24 22:28:00,
2014-01-24 17:34:00,15.9,7.5,29.93,SW,222,19.0,25.0,69,0.00,,,0.00,Wunderground v.1.15,2014-01-24 22:34:00,
2014-01-24 17:40:00,16.0,7.6,29.92,SW,224,20.0,23.0,69,0.00,,,0.00,Wunderground v.1.15,2014-01-24 22:40:00,
2014-01-24 17:46:00,16.2,6.8,29.93,SSW,207,20.0,24.0,66,0.00,,,0.00,Wunderground v.1.15,2014-01-24 22:46:00,
2014-01-24 17:52:00,16.3,6.9,29.92,SSW,211,20.0,20.0,66,0.00,,,0.00,Wunderground v.1.15,2014-01-24 22:52:00,
2014-01-24 17:58:00,16.4,7.3,29.92,SSW,211,19.0,22.0,67,0.00,,,0.00,Wunderground v.1.15,2014-01-24 22:58:00,
2014-01-24 18:04:00,16.5,6.8,29.92,SW,214,20.0,24.0,65,0.00,,,0.00,Wunderground v.1.15,2014-01-24 23:04:00,
2014-01-24 18:10:00,16.6,6.9,29.92,SW,222,19.0,19.0,65,0.00,,,0.00,Wunderground v.1.15,2014-01-24 23:10:00,
2014-01-24 18:16:00,16.8,7.1,29.92,SW,218,18.0,23.0,65,0.00,,,0.00,Wunderground v.1.15,2014-01-24 23:16:00,
2014-01-24 18:22:00,16.8,7.1,29.92,SW,221,19.0,21.0,65,0.00,,,0.00,Wunderground v.1.15,2014-01-24 23:22:00,
2014-01-24 18:28:00,16.9,7.5,29.91,SSW,212,19.0,21.0,66,0.00,,,0.00,Wunderground v.1.15,2014-01-24 23:28:00,
2014-01-24 18:34:00,17.1,7.3,29.91,SW,218,18.0,21.0,65,0.00,,,0.00,Wunderground v.1.15,2014-01-24 23:34:00,
2014-01-24 18:40:00,17.2,7.8,29.91,SSW,208,18.0,19.0,66,0.00,,,0.00,Wunderground v.1.15,2014-01-24 23:40:00,
2014-01-24 18:46:00,17.3,7.5,29.90,SW,217,18.0,19.0,65,0.00,,,0.00,Wunderground v.1.15,2014-01-24 23:46:00,
2014-01-24 18:52:00,17.4,7.6,29.91,SSW,212,18.0,20.0,65,0.00,,,0.00,Wunderground v.1.15,2014-01-24 23:52:00,
2014-01-24 18:58:00,17.5,7.7,29.90,SSW,211,19.0,22.0,65,0.00,,,0.00,Wunderground v.1.15,2014-01-24 23:58:00,
2014-01-24 19:04:00,17.6,7.1,29.90,WSW,243,19.0,21.0,63,0.00,,,0.00,Wunderground v.1.15,2014-01-25 00:04:00,
2014-01-24 19:10:00,17.6,8.2,29.90,SW,214,19.0,19.0,66,0.00,,,0.00,Wunderground v.1.15,2014-01-25 00:10:00,
2014-01-24 19:16:00,17.7,7.9,29.90,SW,218,17.0,19.0,65,0.00,,,0.00,Wunderground v.1.15,2014-01-25 00:16:00,
2014-01-24 19:22:00,17.8,8.0,29.90,SSW,211,17.0,20.0,65,0.00,,,0.00,Wunderground v.1.15,2014-01-25 00:22:00,
2014-01-24 19:28:00,17.9,7.8,29.90,SW,221,17.0,20.0,64,0.00,,,0.00,Wunderground v.1.15,2014-01-25 00:28:00,
2014-01-24 19:34:00,18.0,7.9,29.90,SSW,211,16.0,19.0,64,0.00,,,0.00,Wunderground v.1.15,2014-01-25 00:34:00,
2014-01-24 19:40:00,18.1,8.3,29.89,SW,222,16.0,16.0,65,0.00,,,0.00,Wunderground v.1.15,2014-01-25 00:40:00,
2014-01-24 19:46:00,18.2,8.4,29.88,SW,215,16.0,21.0,65,0.00,,,0.00,Wunderground v.1.15,2014-01-25 00:46:00,
2014-01-24 19:52:00,18.4,8.6,29.88,SW,229,17.0,18.0,65,0.00,,,0.00,Wunderground v.1.15,2014-01-25 00:52:00,
2014-01-24 19:58:00,18.5,8.7,29.87,SW,221,17.0,19.0,65,0.00,,,0.00,Wunderground v.1.15,2014-01-25 00:58:00,
2014-01-24 20:04:00,18.6,8.4,29.87,SSW,205,17.0,23.0,64,0.00,,,0.00,Wunderground v.1.15,2014-01-25 01:04:00,
2014-01-24 20:10:00,18.7,8.9,29.86,SSW,203,19.0,19.0,65,0.00,,,0.00,Wunderground v.1.15,2014-01-25 01:10:00,
2014-01-24 20:16:00,18.8,9.0,29.85,SSW,210,18.0,19.0,65,0.00,,,0.00,Wunderground v.1.15,2014-01-25 01:16:00,
2014-01-24 20:22:00,18.9,9.4,29.84,SSW,210,18.0,21.0,66,0.00,,,0.00,Wunderground v.1.15,2014-01-25 01:22:00,
2014-01-24 20:28:00,19.0,9.2,29.84,SW,214,18.0,21.0,65,0.00,,,0.00,Wunderground v.1.15,2014-01-25 01:28:00,
2014-01-24 20:34:00,19.3,9.4,29.84,SW,233,18.0,19.0,65,0.00,,,0.00,Wunderground v.1.15,2014-01-25 01:34:00,
2014-01-24 20:40:00,19.3,9.8,29.85,SW,221,18.0,19.0,66,0.00,,,0.00,Wunderground v.1.15,2014-01-25 01:40:00,
2014-01-24 20:46:00,19.4,9.9,29.85,WSW,239,20.0,21.0,66,0.00,,,0.00,Wunderground v.1.15,2014-01-25 01:46:00,
2014-01-24 20:52:00,19.3,10.1,29.84,SW,221,18.0,19.0,67,0.00,,,0.00,Wunderground v.1.15,2014-01-25 01:52:00,
2014-01-24 20:58:00,19.4,9.9,29.83,SW,229,19.0,20.0,66,0.00,,,0.00,Wunderground v.1.15,2014-01-25 01:58:00,
2014-01-24 21:04:00,19.3,9.8,29.83,SW,236,19.0,25.0,66,0.00,,,0.00,Wunderground v.1.15,2014-01-25 02:04:00,
2014-01-24 21:10:00,19.3,10.1,29.83,SW,214,20.0,24.0,67,0.00,,,0.00,Wunderground v.1.15,2014-01-25 02:10:00,
2014-01-24 21:16:00,19.2,10.4,29.83,SW,221,19.0,24.0,68,0.00,,,0.00,Wunderground v.1.15,2014-01-25 02:16:00,
2014-01-24 21:22:00,19.4,10.2,29.83,SW,218,19.0,19.0,67,0.00,,,0.00,Wunderground v.1.15,2014-01-25 02:22:00,
2014-01-24 21:28:00,19.4,10.6,29.82,SSW,210,19.0,21.0,68,0.00,,,0.00,Wunderground v.1.15,2014-01-25 02:28:00,
2014-01-24 21:34:00,19.5,10.6,29.82,SW,233,19.0,20.0,68,0.00,,,0.00,Wunderground v.1.15,2014-01-25 02:34:00,
2014-01-24 21:40:00,19.4,11.2,29.81,SW,234,20.0,25.0,70,0.00,,,0.00,Wunderground v.1.15,2014-01-25 02:40:00,
2014-01-24 21:46:00,19.3,11.4,29.81,SW,235,21.0,25.0,71,0.00,,,0.00,Wunderground v.1.15,2014-01-25 02:46:00,
2014-01-24 21:52:00,19.2,12.0,29.80,WSW,243,21.0,24.0,73,0.00,,,0.00,Wunderground v.1.15,2014-01-25 02:52:00,
2014-01-24 21:58:00,18.9,13.2,29.81,SW,222,21.0,24.0,78,0.00,,,0.00,Wunderground v.1.15,2014-01-25 02:58:00,
2014-01-24 22:04:00,18.6,14.0,29.80,SW,229,21.0,22.0,82,0.00,,,0.00,Wunderground v.1.15,2014-01-25 03:04:00,
2014-01-24 22:10:00,18.2,14.7,29.80,SW,226,22.0,23.0,86,0.00,,,0.00,Wunderground v.1.15,2014-01-25 03:10:00,
2014-01-24 22:16:00,18.1,14.9,29.78,SW,214,22.0,26.0,87,0.00,,,0.00,Wunderground v.1.15,2014-01-25 03:16:00,
2014-01-24 22:22:00,17.9,14.9,29.77,SW,217,23.0,27.0,88,0.00,,,0.00,Wunderground v.1.15,2014-01-25 03:22:00,
2014-01-24 22:28:00,17.9,14.9,29.76,SW,235,23.0,27.0,88,0.00,,,0.00,Wunderground v.1.15,2014-01-25 03:28:00,
2014-01-24 22:34:00,18.0,15.0,29.76,SW,232,22.0,25.0,88,0.00,,,0.00,Wunderground v.1.15,2014-01-25 03:34:00,
2014-01-24 22:40:00,18.1,15.4,29.76,SW,214,23.0,23.0,89,0.00,,,0.00,Wunderground v.1.15,2014-01-25 03:40:00,
2014-01-24 22:46:00,18.2,15.5,29.75,SSW,211,22.0,24.0,89,0.00,,,0.00,Wunderground v.1.15,2014-01-25 03:46:00,
2014-01-24 22:52:00,18.3,15.6,29.74,SW,229,23.0,23.0,89,0.00,,,0.00,Wunderground v.1.15,2014-01-25 03:52:00,
2014-01-24 22:58:00,18.2,15.5,29.74,SSW,203,23.0,27.0,89,0.00,,,0.00,Wunderground v.1.15,2014-01-25 03:58:00,
2014-01-24 23:04:00,18.2,15.5,29.73,SW,229,22.0,24.0,89,0.00,,,0.00,Wunderground v.1.15,2014-01-25 04:04:00,
2014-01-24 23:10:00,18.2,15.5,29.73,SSW,212,21.0,22.0,89,0.00,,,0.00,Wunderground v.1.15,2014-01-25 04:10:00,
2014-01-24 23:16:00,18.2,15.5,29.72,South,190,22.0,23.0,89,0.00,,,0.00,Wunderground v.1.15,2014-01-25 04:16:00,
2014-01-24 23:22:00,18.2,15.5,29.72,SW,228,23.0,25.0,89,0.00,,,0.00,Wunderground v.1.15,2014-01-25 04:22:00,
2014-01-24 23:28:00,18.3,15.9,29.72,SW,229,23.0,25.0,90,0.00,,,0.00,Wunderground v.1.15,2014-01-25 04:28:00,
2014-01-24 23:34:00,18.3,15.9,29.71,SW,214,22.0,23.0,90,0.00,,,0.00,Wunderground v.1.15,2014-01-25 04:34:00,
2014-01-24 23:40:00,18.4,16.0,29.71,SW,217,22.0,22.0,90,0.00,,,0.00,Wunderground v.1.15,2014-01-25 04:40:00,
2014-01-24 23:46:00,18.5,16.1,29.70,SSW,210,22.0,23.0,90,0.00,,,0.00,Wunderground v.1.15,2014-01-25 04:46:00,
2014-01-24 23:52:00,18.5,16.1,29.70,SW,228,23.0,25.0,90,0.00,,,0.00,Wunderground v.1.15,2014-01-25 04:52:00,
2014-01-24 23:58:00,18.6,16.2,29.69,SSW,207,23.0,26.0,90,0.00,,,0.00,Wunderground v.1.15,2014-01-25 04:58:00,